This is the latest recevied weather packets stored in our database for station/object KF4UQS-14. If no packets are shown the sender has not sent any weather packets the latest 10 day(s).
| Time | Temp. | Humidity | Pressure | Rain* | Wind** | Luminosity | Snow |
|---|---|---|---|---|---|---|---|
| 1778326417 | 12.22° C | 99% | 1014.5 hPa | 0 mm | - | 25 W/m² | - |
| 1778326114 | 12.22° C | 99% | 1014.3 hPa | 0 mm | - | 21 W/m² | - |
| 1778325811 | 12.22° C | 99% | 1014.2 hPa | 0 mm | - | 20 W/m² | - |
| 1778325508 | 12.22° C | 99% | 1014.6 hPa | 0 mm | - | 26 W/m² | - |
| 1778325205 | 12.22° C | 98% | 1014.5 hPa | 0 mm | - | 36 W/m² | - |
| 1778324903 | 12.78° C | 99% | 1014.6 hPa | 0 mm | - | 25 W/m² | - |
| 1778324599 | 11.67° C | 99% | 1014.6 hPa | 0 mm | - | 63 W/m² | - |
| 1778324297 | 11.67° C | 98% | 1014.7 hPa | 0 mm | - | 50 W/m² | - |
| 1778323995 | 11.11° C | 98% | 1014.7 hPa | 0 mm | - | 21 W/m² | - |
| 1778323691 | 11.11° C | 98% | 1014.8 hPa | 0 mm | - | 18 W/m² | - |
| 1778323388 | 11.11° C | 98% | 1015 hPa | 0 mm | - | 16 W/m² | - |
| 1778323086 | 11.11° C | 98% | 1014.9 hPa | 0 mm | - | 17 W/m² | - |
| 1778322783 | 11.11° C | 98% | 1015 hPa | 0 mm | - | 14 W/m² | - |
| 1778322482 | 11.11° C | 98% | 1014.8 hPa | 0 mm | - | 12 W/m² | - |
| 1778322178 | 11.11° C | 98% | 1014.7 hPa | 0 mm | - | 10 W/m² | - |
| 1778321874 | 10.56° C | 98% | 1014.8 hPa | 0 mm | - | 7 W/m² | - |
| 1778321570 | 10.56° C | 98% | 1014.7 hPa | 0 mm | - | 5 W/m² | - |
| 1778321268 | 10.56° C | 98% | 1014.8 hPa | 0 mm | - | 3 W/m² | - |
| 1778320966 | 10.56° C | 98% | 1014.5 hPa | 0 mm | - | 2 W/m² | - |
| 1778320662 | 10.56° C | 98% | 1014.7 hPa | 0 mm | - | 1 W/m² | - |
| 1778320359 | 10.56° C | 98% | 1014.8 hPa | 0 mm | - | 1 W/m² | - |
| 1778320056 | 10° C | 98% | 1014.5 hPa | 0 mm | - | 0 W/m² | - |
| 1778319753 | 10.56° C | 98% | 1014.7 hPa | 0 mm | - | 0 W/m² | - |
| 1778319451 | 10.56° C | 98% | 1014.7 hPa | 0 mm | - | 0 W/m² | - |
| 1778319148 | 10° C | 97% | 1014.7 hPa | 0 mm | - | 0 W/m² | - |
* Rain latest hour (hover to see other rain measurements)
** Current wind speed in m/s (hover to see current wind gust speed)